DW4554 Weather Reports


time (UTC)temp
F
wind
direction
speed
knots
gust
knots
rain 1hr
in
rain 24hr
in
rain mn
in
humidity
%
barometer
mb
20260901081404 69 290 3.5 7.0 0.00 0.01 0.00 68 1018.0
20260901080404 68 243 4.3 10.4 0.00 0.01 0.00 69 1017.9
20260901075904 68 235 2.6 10.4 0.00 0.01 0.00 70 1017.8
20260901075404 67 236 0.9 5.2 0.00 0.01 0.00 72 1017.8
20260901074904 67 234 1.7 5.2 0.00 0.01 0.00 74 1017.8
20260901074404 67 234 2.6 7.0 0.00 0.01 0.00 73 1017.7
20260901073905 66 233 4.3 7.8 0.00 0.01 0.00 73 1017.7
20260901072904 66 192 1.7 4.3 0.00 0.01 0.00 76 1017.6
20260901072405 66 188 1.7 6.1 0.00 0.01 0.00 74 1017.6
20260901071904 65 225 4.3 8.7 0.00 0.01 0.00 77 1017.6
20260901071404 65 204 3.5 7.0 0.00 0.01 0.00 78 1017.5
20260901070905 65 215 2.6 7.0 0.00 0.01 0.00 78 1017.4
20260901070404 64 195 2.6 7.0 0.00 0.01 0.00 81 1017.4
20260901065905 63 207 3.5 7.0 0.00 0.01 0.00 81 1017.4
20260901065405 62 208 4.3 8.7 0.00 0.01 0.00 84 1017.3
20260901064905 61 182 0.9 4.3 0.00 0.01 0.00 85 1017.2
20260901064404 61 182 2.6 6.1 0.00 0.01 0.00 88 1017.2
20260901063904 60 192 1.7 2.6 0.00 0.01 0.00 90 1017.1
20260901063404 60 215 2.6 5.2 0.00 0.01 0.00 91 1017.1
20260901062904 59 208 2.6 6.1 0.00 0.01 0.00 92 1017.1
20260901062404 59 178 2.6 4.3 0.00 0.01 0.00 92 1017.1
20260901061904 59 182 1.7 5.2 0.00 0.01 0.00 92 1017.1
20260901061404 58 157 2.6 4.3 0.00 0.01 0.00 92 1017.1
20260901060904 58 122 0.0 0.0 0.00 0.01 0.00 92 1017.0
20260901060404 58 96 0.0 0.0 0.00 0.01 0.00 93 1017.0
20260901055404 57 96 0.0 0.0 0.00 0.01 0.00 92 1016.8
20260901054904 57 96 0.0 0.0 0.00 0.01 0.00 92 1016.8
20260901054405 57 96 0.0 0.0 0.00 0.01 0.00 92 1016.8
20260901051905 57 96 0.0 0.0 0.00 0.01 0.00 92 1016.6
20260901051404 57 96 0.0 0.0 0.00 0.01 0.00 92 1016.6
20260901050905 57 96 0.0 0.0 0.00 0.01 0.00 92 1016.6
20260901050404 57 96 0.0 0.0 0.00 0.01 0.00 92 1016.5
20260901045404 57 96 0.0 0.0 0.00 0.01 0.00 92 1016.5
20260901044904 56 96 0.0 0.9 0.00 0.01 0.00 92 1016.4
20260901044404 56 96 0.0 1.7 0.00 0.01 0.00 92 1016.3
20260901043904 57 96 0.0 0.9 0.00 0.01 0.00 92 1016.3
20260901043404 57 96 0.0 1.7 0.00 0.01 0.00 91 1016.2
20260901042904 57 96 0.9 1.7 0.00 0.01 0.00 91 1016.2
20260901042404 57 96 0.9 1.7 0.00 0.01 0.00 91 1016.1
20260901041404 57 96 0.0 0.0 0.00 0.01 0.00 91 1016.0
20260901040405 57 96 0.0 0.0 0.00 0.01 0.00 91 1015.9
20260901035904 57 96 0.0 0.0 0.00 0.01 0.00 91 1015.8
20260901035404 57 96 0.0 0.0 0.00 0.01 0.00 91 1015.8
20260901034904 57 96 0.0 0.0 0.00 0.01 0.00 91 1015.8
20260901033404 58 96 0.0 0.0 0.00 0.01 0.00 91 1015.5
20260901032904 58 96 0.0 0.0 0.00 0.01 0.00 91 1015.5
20260901032404 58 96 0.0 0.0 0.00 0.01 0.00 91 1015.5
20260901031905 58 96 0.0 0.0 0.00 0.01 0.00 90 1015.5
20260901031404 58 96 0.0 0.0 0.00 0.01 0.00 90 1015.5
20260901030904 59 96 0.0 0.0 0.00 0.01 0.00 91 1015.5
20260901030404 59 96 0.0 0.0 0.00 0.01 0.00 90 1015.5
20260901025404 59 96 0.0 0.0 0.00 0.01 0.00 90 1015.5
20260901024904 59 96 0.0 0.0 0.00 0.01 0.00 90 1015.5
20260901024404 59 96 0.0 0.0 0.00 0.01 0.00 90 1015.5
20260901023904 59 96 0.0 0.0 0.00 0.01 0.00 90 1015.5
20260901023405 60 96 0.0 0.0 0.00 0.01 0.00 90 1015.4
20260901022904 60 96 0.0 0.0 0.00 0.01 0.00 90 1015.3
20260901022404 60 96 0.0 0.0 0.00 0.01 0.00 90 1015.3
20260901021904 60 96 0.0 0.0 0.00 0.01 0.00 90 1015.2
20260901020404 60 96 0.9 2.6 0.00 0.01 0.00 90 1015.2
20260901015904 61 96 0.0 0.0 0.00 0.01 0.00 90 1015.1
20260901015404 61 96 0.0 0.0 0.00 0.01 0.00 90 1015.1
20260901014904 61 96 0.0 0.0 0.00 0.01 0.00 90 1015.1
20260901014404 61 96 0.0 0.0 0.00 0.01 0.00 90 1015.1
20260901013904 61 96 0.9 1.7 0.00 0.01 0.00 90 1015.1
20260901013404 61 96 0.0 1.7 0.00 0.01 0.00 90 1015.1
20260901012904 61 96 1.7 2.6 0.00 0.01 0.00 89 1015.1
20260901012404 61 203 0.9 2.6 0.00 0.01 0.00 89 1015.1
20260901011904 62 213 0.0 0.0 0.00 0.01 0.00 89 1015.0
20260901011404 62 213 0.0 0.0 0.00 0.01 0.00 89 1015.0
20260901010904 62 213 0.0 0.0 0.00 0.01 0.00 89 1015.0
20260901010404 62 213 0.0 0.0 0.00 0.01 0.00 89 1015.0
20260901005905 62 213 0.0 0.0 0.00 0.01 0.00 89 1015.0
20260901005404 62 213 0.0 0.0 0.00 0.01 0.00 89 1015.0
20260901004904 63 213 0.0 0.0 0.00 0.01 0.00 89 1015.0
20260901004404 63 213 0.0 0.0 0.00 0.01 0.00 89 1015.0
20260901003904 63 213 0.0 0.0 0.00 0.01 0.00 89 1015.0
20260901003404 63 213 0.0 0.0 0.00 0.01 0.00 89 1015.1
20260901002904 63 213 0.0 0.0 0.00 0.01 0.00 89 1015.0
20260901002404 63 213 0.0 0.0 0.00 0.01 0.00 89 1015.0
20260901001904 63 213 0.0 0.0 0.00 0.01 0.00 89 1015.0
20260901001404 63 213 0.0 0.0 0.00 0.01 0.00 89 1015.0
20260901000904 64 213 0.0 0.0 0.00 0.01 0.00 89 1015.0
20260901000405 64 213 0.0 0.0 0.00 0.01 0.00 89 1015.0
20260831235904 64 213 0.0 17.4 0.00 0.01 0.00 89 1014.9
20260831235404 64 213 0.0 0.0 0.00 0.01 0.00 89 1014.9
20260831234904 64 213 0.0 0.0 0.00 0.01 0.00 89 1014.9
20260831234404 64 213 0.0 0.0 0.00 0.01 0.00 89 1014.9
20260831233404 64 213 0.0 0.0 0.00 0.01 0.00 89 1015.0
20260831232404 64 213 0.0 0.0 0.00 0.01 0.00 89 1015.1
20260831231904 64 213 0.0 0.0 0.00 0.01 0.00 89 1015.1
20260831231405 64 213 0.0 0.0 0.00 0.01 0.00 89 1015.1
20260831230904 64 213 0.0 0.0 0.00 0.01 0.00 89 1015.1
20260831225905 64 213 0.0 0.0 0.00 0.01 0.00 88 1015.3
20260831225404 64 213 0.0 0.0 0.00 0.01 0.00 88 1015.4
20260831224904 64 213 0.0 0.0 0.00 0.01 0.00 88 1015.5
20260831223904 64 213 0.0 0.0 0.00 0.01 0.00 88 1015.5
20260831222904 65 213 0.0 0.0 0.00 0.01 0.00 88 1015.6
20260831222404 65 213 0.0 0.0 0.00 0.01 0.00 88 1015.6
20260831221904 65 213 0.0 0.0 0.00 0.01 0.00 88 1015.6
20260831221404 65 213 0.0 0.0 0.00 0.01 0.00 87 1015.6
20260831220904 65 213 0.0 0.0 0.00 0.01 0.00 87 1015.6
20260831215404 65 213 0.0 0.0 0.00 0.01 0.01 86 1015.4
20260831214904 65 213 0.0 0.0 0.00 0.01 0.01 86 1015.3
20260831214404 65 213 0.0 0.0 0.00 0.01 0.01 86 1015.2
20260831213904 65 213 0.0 0.0 0.00 0.01 0.01 86 1015.1
20260831213405 65 213 0.0 0.0 0.00 0.01 0.01 86 1014.9
20260831212904 65 213 0.0 0.0 0.00 0.01 0.01 86 1014.9
20260831211904 66 213 0.0 0.0 0.00 0.01 0.01 86 1014.7
20260831211404 66 213 0.0 0.0 0.00 0.01 0.01 86 1014.7
20260831210904 66 213 0.0 0.0 0.00 0.01 0.01 86 1014.7
20260831210405 66 213 0.0 0.0 0.00 0.01 0.01 86 1014.6
20260831205904 66 213 0.0 0.0 0.00 0.01 0.01 85 1014.7
20260831205404 66 213 0.0 0.0 0.00 0.01 0.01 85 1014.7
20260831204904 66 213 0.0 0.0 0.00 0.01 0.01 85 1014.6
20260831203904 67 213 0.0 0.0 0.00 0.01 0.01 85 1014.2
20260831203404 67 213 0.0 0.0 0.00 0.01 0.01 85 1014.0
20260831202904 67 213 0.0 0.0 0.00 0.01 0.01 85 1013.9
20260831202404 67 213 0.0 0.0 0.00 0.01 0.01 84 1013.9
20260831201905 67 213 0.0 0.0 0.00 0.01 0.01 84 1013.9
20260831200904 67 213 0.0 0.0 0.00 0.01 0.01 83 1013.7
20260831200404 68 213 0.0 0.0 0.00 0.01 0.01 83 1013.7
20260831195904 68 213 0.0 0.0 0.00 0.01 0.01 83 1013.7
20260831195404 68 213 0.0 0.0 0.00 0.01 0.01 83 1013.7
20260831194904 68 213 0.0 0.0 0.00 0.01 0.01 83 1013.6
20260831194405 68 213 0.0 0.0 0.00 0.01 0.01 82 1013.4
20260831193904 68 213 0.0 0.0 0.00 0.01 0.01 82 1013.4
20260831193404 69 213 0.0 0.0 0.00 0.01 0.01 81 1013.4
20260831192904 69 213 0.0 0.0 0.00 0.01 0.01 81 1013.3
20260831192404 69 213 0.0 0.0 0.00 0.01 0.01 81 1013.2
20260831191904 69 213 0.0 0.0 0.00 0.01 0.01 80 1013.2
20260831191404 69 213 0.0 0.0 0.00 0.01 0.01 80 1013.1
20260831190404 70 213 0.0 0.9 0.00 0.01 0.01 78 1012.9
20260831185904 70 213 0.0 0.9 0.00 0.01 0.01 78 1012.8
20260831185404 70 213 0.0 0.9 0.00 0.01 0.01 78 1012.8
20260831184904 71 213 0.0 0.0 0.00 0.01 0.01 77 1012.7
20260831184404 71 213 0.0 0.0 0.00 0.01 0.01 76 1012.6
20260831183904 71 213 0.0 0.9 0.00 0.01 0.01 76 1012.6
20260831183404 71 213 0.0 1.7 0.00 0.01 0.01 75 1012.5
20260831182905 72 213 0.0 0.0 0.00 0.01 0.01 75 1012.5
20260831181904 72 213 0.0 0.0 0.00 0.01 0.01 74 1012.6
20260831180905 73 213 0.0 0.0 0.00 0.01 0.01 73 1012.5
20260831180404 73 213 0.0 0.0 0.00 0.01 0.01 73 1012.5
20260831175904 74 213 0.0 0.0 0.00 0.01 0.01 73 1012.5
20260831174904 74 213 0.0 0.0 0.00 0.01 0.01 71 1012.5
20260831174404 75 213 0.0 0.0 0.00 0.01 0.01 70 1012.4
20260831173904 75 213 0.0 0.0 0.00 0.01 0.01 69 1012.3
20260831173405 75 213 0.0 0.0 0.00 0.01 0.01 69 1012.4
20260831172904 76 213 0.0 1.7 0.00 0.01 0.01 68 1012.2
20260831171404 77 213 0.9 1.7 0.00 0.01 0.01 67 1012.2
20260831170904 77 213 0.9 2.6 0.00 0.01 0.01 66 1012.2
20260831170404 78 215 0.0 0.9 0.00 0.01 0.01 66 1012.2
20260831165904 78 215 0.0 0.0 0.00 0.01 0.01 64 1012.3
20260831165404 78 215 0.0 0.0 0.00 0.01 0.01 64 1012.3
20260831164904 79 215 0.0 0.0 0.00 0.01 0.01 63 1012.2
20260831164404 79 215 0.0 0.0 0.00 0.01 0.01 62 1012.2
20260831163904 80 215 0.0 0.0 0.00 0.01 0.01 62 1012.2
20260831163404 80 215 0.0 0.0 0.00 0.01 0.01 62 1012.3
20260831162404 81 215 0.0 0.0 0.00 0.01 0.01 59 1012.2
20260831161904 81 215 0.0 0.0 0.00 0.01 0.01 58 1012.2
20260831161404 81 215 0.0 1.7 0.00 0.01 0.01 58 1012.2
20260831160904 81 215 1.7 2.6 0.00 0.01 0.01 57 1012.2
20260831160404 82 215 1.7 2.6 0.00 0.01 0.01 56 1012.2
20260831155904 82 215 1.7 4.3 0.00 0.01 0.01 57 1012.2
20260831155404 82 213 2.6 5.2 0.00 0.01 0.01 57 1012.2
20260831154904 82 209 0.0 2.6 0.00 0.01 0.01 56 1012.2
20260831154404 82 209 0.9 2.6 0.00 0.01 0.01 57 1012.2
20260831153904 82 209 0.0 2.6 0.00 0.01 0.01 56 1012.2
20260831153405 82 209 0.9 2.6 0.00 0.01 0.01 57 1012.2
20260831152904 81 209 0.9 2.6 0.00 0.01 0.01 57 1012.2
20260831152404 81 225 1.7 4.3 0.00 0.01 0.01 59 1012.2
20260831151904 81 225 2.6 4.3 0.00 0.01 0.01 59 1012.2
20260831151404 80 202 1.7 5.2 0.00 0.01 0.01 58 1012.2
20260831150404 80 209 0.9 2.6 0.00 0.01 0.01 59 1012.3
20260831145904 80 209 0.0 2.6 0.00 0.01 0.01 60 1012.3
20260831145404 80 211 0.0 2.6 0.00 0.01 0.01 60 1012.4
20260831144904 80 212 2.6 6.1 0.00 0.01 0.01 59 1012.4
20260831144404 80 228 2.6 5.2 0.01 0.01 0.01 59 1012.4
20260831143904 80 234 2.6 6.1 0.01 0.01 0.01 59 1012.4
20260831143404 79 232 2.6 5.2 0.01 0.01 0.01 60 1012.5
20260831142904 79 222 1.7 6.1 0.01 0.01 0.01 60 1012.4
20260831142404 79 200 2.6 4.3 0.01 0.01 0.01 62 1012.4
20260831141905 79 236 3.5 7.0 0.01 0.01 0.01 61 1012.5
20260831140904 79 214 2.6 5.2 0.01 0.01 0.01 60 1012.5
20260831140404 79 192 1.7 4.3 0.01 0.01 0.01 60 1012.5
20260831135904 79 187 0.9 4.3 0.01 0.01 0.01 58 1012.5
20260831135404 80 213 1.7 2.6 0.01 0.01 0.01 58 1012.5
20260831134904 80 214 2.6 5.2 0.01 0.01 0.01 59 1012.5
20260831133904 80 237 0.9 6.1 0.00 0.00 0.00 61 1012.6
20260831133405 79 269 1.7 2.6 0.00 0.00 0.00 60 1012.6
20260831132904 79 297 2.6 7.0 0.00 0.00 0.00 61 1012.7
20260831132404 78 274 1.7 5.2 0.00 0.00 0.00 61 1012.7
20260831131904 78 271 0.9 5.2 0.00 0.00 0.00 63 1012.7
20260831131404 77 258 2.6 4.3 0.00 0.00 0.00 65 1012.8
20260831130905 77 286 0.9 2.6 0.00 0.00 0.00 64 1012.8
20260831130405 78 289 4.3 6.1 0.00 0.00 0.00 61 1012.9
20260831125904 78 285 3.5 6.1 0.00 0.00 0.00 61 1013.0
20260831125404 78 269 1.7 4.3 0.00 0.00 0.00 60 1012.9
20260831124904 78 231 1.7 6.1 0.00 0.00 0.00 60 1013.0
20260831124404 78 275 2.6 7.0 0.00 0.00 0.00 60 1013.0
20260831123904 78 237 1.7 8.7 0.00 0.00 0.00 60 1013.1
20260831123404 78 241 4.3 10.4 0.00 0.00 0.00 59 1013.1
20260831122904 79 226 4.3 7.0 0.00 0.00 0.00 58 1013.1
20260831122404 79 239 7.0 10.4 0.00 0.00 0.00 58 1013.0
20260831120904 79 229 4.3 8.7 0.00 0.00 0.00 60 1013.0
20260831120404 78 244 4.3 10.4 0.00 0.00 0.00 59 1013.0
20260831115904 79 235 5.2 10.4 0.00 0.00 0.00 59 1013.0
20260831115404 79 254 4.3 8.7 0.00 0.00 0.00 59 1013.0
20260831114404 79 243 4.3 8.7 0.00 0.00 0.00 60 1012.8
20260831113904 79 222 4.3 7.8 0.00 0.00 0.00 59 1012.8
20260831113404 79 228 4.3 7.8 0.00 0.00 0.00 59 1012.9
20260831112904 80 238 5.2 10.4 0.00 0.00 0.00 58 1012.9
20260831112404 80 218 5.2 10.4 0.00 0.00 0.00 57 1012.8
20260831111904 80 208 5.2 10.4 0.00 0.00 0.00 58 1012.8
20260831111404 81 214 5.2 10.4 0.00 0.00 0.00 57 1012.8
20260831110904 81 233 7.8 13.0 0.00 0.00 0.00 58 1012.7
20260831110404 81 220 7.8 17.4 0.00 0.00 0.00 58 1012.6
20260831105904 81 222 7.8 13.9 0.00 0.00 0.00 58 1012.5
20260831105404 81 242 5.2 11.3 0.00 0.00 0.00 58 1012.4
20260831104904 80 215 5.2 10.4 0.00 0.00 0.00 60 1012.4
20260831104404 80 235 5.2 11.3 0.00 0.00 0.00 60 1012.5
20260831103404 79 227 3.5 8.7 0.00 0.00 0.00 62 1012.5
20260831102904 79 243 5.2 10.4 0.00 0.00 0.00 65 1012.6
20260831101904 78 229 2.6 7.0 0.00 0.00 0.00 65 1012.5
20260831101404 78 240 1.7 4.3 0.00 0.00 0.00 65 1012.5
20260831100404 77 242 0.9 2.6 0.00 0.00 0.00 65 1012.4
20260831095904 77 218 0.9 1.7 0.00 0.00 0.00 65 1012.4
20260831095404 77 218 0.9 2.6 0.00 0.00 0.00 65 1012.3
20260831094404 77 218 1.7 5.2 0.00 0.00 0.00 65 1012.4
20260831093904 77 215 2.6 2.6 0.00 0.00 0.00 64 1012.5
20260831093404 77 215 2.6 4.3 0.00 0.00 0.00 65 1012.4
20260831092904 77 207 0.9 2.6 0.00 0.00 0.00 63 1012.2
20260831092405 77 208 1.7 4.3 0.00 0.00 0.00 65 1012.3
20260831091904 78 213 4.3 6.1 0.00 0.00 0.00 65 1012.4
20260831090405 78 243 1.7 4.3 0.00 0.00 0.00 65 1012.5
20260831085904 78 245 1.7 4.3 0.00 0.00 0.00 66 1012.5
20260831085404 78 242 0.9 2.6 0.00 0.00 0.00 65 1012.4
20260831084904 78 253 0.9 2.6 0.00 0.00 0.00 65 1012.3
20260831084404 77 50 0.0 0.9 0.00 0.00 0.00 65 1012.3
20260831083904 77 50 0.0 0.9 0.00 0.00 0.00 64 1012.1
20260831083405 77 50 0.9 2.6 0.00 0.00 0.00 65 1012.0
20260831082904 76 50 0.9 2.6 0.00 0.00 0.00 68 1012.0
20260831082404 76 50 0.0 0.0 0.00 0.00 0.00 69 1012.0
20260831081905 76 50 0.0 1.7 0.00 0.00 0.00 66 1012.0